x

Buzzards Bay, Ma (buzm3) Weather Station

6:00am - Sun 19th Nov 2017 All times are EST. -5 hours from GMT.

  • Wind
    38mph, 43mph gusts
  • Air Temp 59°f
  • Sea Pressure 991.8mb
  • Buzzards Bay, Ma
  • Buzzards Bay, Ma

More Historic Weather Station data

Upgrade to MSW Pro to gain access to the past 30 days of data for over 8000 Wavebouys and Weather Stations around the globe.

Join

Comparision Forecast

View Surf forecast
   
Sun 11/19 6:00am 38 43 mph 991.8mb 59f
5:00am 38 44 mph 992.7mb 61f
4:00am 34 38 mph 993.7mb 61f
2:00am 32 37 mph 996.3mb 60f
1:00am 34 39 mph 997.6mb 60f
12:00am 28 30 mph 999.2mb 59f
Sat 11/18 11:00pm 23 24 mph 1000.7mb 57f
9:00pm 24 29 mph 1002.3mb 58f
8:00pm 23 25 mph 1003.6mb 58f
7:00pm 26 29 mph 1004.3mb 57f
6:00pm 29 31 mph 1005.1mb 56f
5:00pm 28 29 mph 1006mb 55f
4:00pm 26 30 mph 1006.5mb 55f
3:00pm 25 26 mph 1008.1mb 53f
2:00pm 23 26 mph 1009.4mb 52f
1:00pm 10 11 mph 1010.7mb 50f
12:00pm 8 9 mph 1011.9mb 47f
11:00am 7 8 mph 1013.5mb 45f
10:00am 7 9 mph 1014.6mb 44f
9:00am 7 8 mph 1015.2mb 44f
8:00am 6 7 mph 1015.8mb 42f
7:00am 6 8 mph 1016mb 41f
6:00am 9 10 mph 1015.9mb 40f
5:00am 10 13 mph 1016.1mb 41f
4:00am 9 10 mph 1015.5mb 40f
3:00am 8 10 mph 1016.6mb 38f
2:00am 15 17 mph 1016.8mb 38f
1:00am 16 21 mph 1017.2mb 39f
12:00am 16 20 mph 1016.6mb 38f
Fri 11/17 11:00pm 16 21 mph 1016.3mb 39f
10:00pm 14 15 mph 1016mb 39f
9:00pm 22 25 mph 1016.7mb 39f
8:00pm 26 29 mph 1016.1mb 40f
7:00pm 24 26 mph 1016.2mb 41f
6:00pm 22 26 mph 1016mb 43f
5:00pm 26 29 mph 1015.2mb 43f
4:00pm 24 28 mph 1014.1mb 46f
3:00pm 26 30 mph 1013.2mb 46f
2:00pm 25 28 mph 1012.6mb 45f
1:00pm 23 25 mph 1012.4mb 43f
12:00pm 25 28 mph 1012.6mb 42f
11:00am 32 38 mph 1012.6mb 42f
10:00am 32 39 mph 1012.7mb 42f
9:00am 30 36 mph 1012.2mb 41f
8:00am 34 39 mph 1011.9mb 41f
7:00am 30 34 mph 1011.1mb 41f
6:00am 33 37 mph 1009.6mb 42f
5:00am 34 40 mph 1008.6mb 43f
4:00am 30 32 mph 1008.3mb 43f
3:00am 29 33 mph 1008mb 44f
2:00am 30 33 mph 1007.7mb 45f
1:00am 28 32 mph 1007.3mb 45f
12:00am 30 33 mph 1007.2mb 46f
Thu 11/16 11:00pm 28 31 mph 1007.1mb 47f
10:00pm 28 29 mph 1007.3mb 47f
9:00pm 26 30 mph 1007.6mb 48f
8:00pm 28 32 mph 1007.1mb 49f
7:00pm 23 25 mph 1006.8mb 49f
6:00pm 16 17 mph 1006.3mb 52f
5:00pm 14 16 mph 1006.1mb 51f
4:00pm 14 15 mph 1005.9mb 51f
3:00pm 17 18 mph 1005.3mb 50f
2:00pm 17 18 mph 1005.3mb 50f
1:00pm 15 17 mph 1006.8mb 51f
12:00pm 28 30 mph 1008.1mb 51f
11:00am 31 32 mph 1009.9mb 51f
10:00am 31 33 mph 1011.9mb 52f
9:00am 30 32 mph 1013.1mb 51f
8:00am 25 28 mph 1014.1mb 51f
7:00am 22 24 mph 1014mb 51f
6:00am 18 21 mph 1015.8mb 50f
5:00am 17 18 mph 1016.7mb 50f
4:00am 16 18 mph 1017.3mb 49f
3:00am 16 18 mph 1017.3mb 48f
2:00am 16 18 mph 1018.7mb 47f
1:00am 14 16 mph 1019.6mb 46f
12:00am 16 21 mph 1019.9mb 46f
Wed 11/15 11:00pm 16 18 mph 1020.3mb 45f
10:00pm 14 16 mph 1021mb 44f
9:00pm 14 15 mph 1022.4mb 44f
8:00pm 14 15 mph 1022.6mb 43f
7:00pm 15 17 mph 1022.9mb 43f
6:00pm 11 14 mph 1023.4mb 44f
5:00pm 14 16 mph 1023.1mb 44f
4:00pm 11 13 mph 1023.1mb 44f
3:00pm 16 18 mph 1022.7mb 44f
2:00pm 11 14 mph 1023.5mb 45f
1:00pm 13 16 mph 1023.7mb 44f